FENGYUN 1C DEB, 31739

Orbit data source: Space-Track

FENGYUN 1C DEB, 31739 is space debris in SSO originally from a launch on Mon, 10 May 1999 UTC launched from the Taiyaun Space Center, China (TSC). Fengyun 1C debris stems from the Chinese weather satellite Fengyun-1C, which was intentionally destroyed by a Chinese anti-satellite missile in 2007. This event dramatically increased the amount of space debris, with thousands of trackable fragments posing hazards to satellites and human spaceflight. The Fengyun 1C debris cloud has become a focal point in discussions about space sustainability and the need for international regulations to prevent the creation of new debris.

Loading next visibility...
Identifier
31739, 1999-025CEN
Orbit
SSO
Country
Flag of CNCN / PRC
Related business
Manufacturer
Unknown
Mission
Spacecraft
Bus & Motor
Unknown
Mass
Unknown
Launch date (UTC)
1999-05-10 (27 years ago)
Launch vehicle
Unknown
Launch site
Taiyaun Space Center, China (TSC)
Object type
Payload
Rocket body
Debris
Shape & HBR
Unknown shape, 0.1 m
Radar Cross Section
Small (<0.1 m²)

Expand to show TLE details & history
Last TLE update: 8 hours ago

TLE from 8 hours ago
0 FENGYUN 1C DEB
1 31739U 99025CEN 26123.92083434  .00000149  00000-0  84315-4 0  9994
2 31739  98.7215 182.2912 0127795  29.6779 331.1570 14.19289422975039
Epoch: 2026-05-03T22:06Z
TLE epoch observation values (Epoch: 2026-05-03T22:06:00.086Z)
Latitude
-0.00001°
Longitude
-11.02661°
Altitude
750.269 km
Speed
7.521 km/s
True Right ascension
12h 09m 09s
True Declination
0° 00' 00"
Sunlit
Object was in full shadow at epoch
Visualization orbit readout
Latitude
Unknown
Longitude
Unknown
Altitude
Unknown
Speed
Unknown
Apparent Right ascension
Unknown
Apparent Declination
Unknown
Sunlit
N/A
Visualization observer readout
Local Sidereal Time
14:16:07
Azimuth
Unknown
Elevation
Unknown
Doppler factor
Unknown
Orbital elements
Apogee altitude
916.968 km
Perigee altitude
732.865 km
Semi-major axis
7,203.053 km
Eccentricity
0.01278
Inclination
98.7215°
RAAN
182.2912°
Arg. of periapsis
29.6779°
True anomaly
330.44055°
Mean anomaly
331.157°
Eccentric anomaly
330.79978°
Mean motion
3.55033 °/min
Orbital period
101.4 mins
BSTAR
0.000084315
Loading maneuver chart data...
Computing Atmospheric mass density...

Documentation

Showing up to 5 results
|